Flag for U.S.A. Weather past 2 weeks in Sunrise, Florida, U.S.A.

Now
75 °F

Sunny.


Feels Like: 77 °F
Forecast: 56 / 76 °F
Wind: 13 mph from Northeast

Location: Fort Lauderdale Executive Airport

Current Time: Mar 29, 2015 at 3:54:54 PM

Latest Report: Mar 29, 2015 at 2:53 PM


Visibility: 10 mi

Pressure: 30.26 "Hg

Humidity: 37%

Dew point: 47 °F

Location of SunriseLocation

Historic Weather in Sunrise — Graph

°F

Sunrise temperature yesterday

Maximum temperature yesterday: 71 °F (at 3:53 PM)
Minimum temperature yesterday: 61 °F (at 7:53 AM)
Average temperature yesterday: 66 °F

Past Weeks' High & Low Weather Summary

 TemperatureHumidityPressure
High91 °F (Mar 27, 1:53 PM)100% (Mar 16, 6:53 AM)30.32 "Hg (Mar 16, 6:53 AM)
Low56 °F (Mar 29, 7:53 AM)32% (Mar 23, 2:53 PM)29.80 "Hg (Mar 27, 4:53 PM)
Average76 °F71%30.05 "Hg
* Reported Mar 14 1:53 PM — Mar 29 1:53 PM, Sunrise, Weather by CustomWeather, © 2015

Note: Actual official high and low records may vary slightly from our data, if they occured in-between our weather recording intervals... More about our weather records

Advertising

Sunrise weather history for previous 24 hours

 ConditionsComfort  
Time TempWeatherWind HumidityBarometerVisibility
1:53 PM
Sun, Mar 29
76 °FPassing clouds.12 mph37%30.29 "Hg10 mi
12:53 PM76 °FPassing clouds.8 mph37%30.30 "Hg10 mi
11:53 AM73 °FSunny.9 mph46%30.32 "Hg10 mi
10:53 AM69 °FPassing clouds.8 mph47%30.32 "Hg10 mi
9:53 AM66 °FSunny.7 mph47%30.30 "Hg10 mi
8:53 AM60 °FSunny.5 mph58%30.29 "Hg10 mi
7:53 AM56 °FPassing clouds.3 mph65%30.27 "Hg10 mi
6:53 AM57 °FClear.6 mph60%30.24 "Hg10 mi
5:53 AM57 °FClear.6 mph62%30.22 "Hg10 mi
4:53 AM58 °FClear.5 mph65%30.20 "Hg10 mi
3:53 AM58 °FClear.No wind70%30.20 "Hg10 mi
2:53 AM59 °FClear.3 mph62%30.21 "Hg10 mi
1:53 AM60 °FClear.6 mph56%30.22 "Hg10 mi
12:53 AM62 °FClear.6 mph48%30.24 "Hg10 mi
11:53 PM
Sat, Mar 28
63 °FClear.7 mph48%30.22 "Hg10 mi
10:53 PM65 °FClear.No wind54%30.21 "Hg10 mi
9:53 PM66 °FClear.No wind50%30.20 "Hg10 mi
8:53 PM67 °FClear.3 mph47%30.18 "Hg10 mi
7:53 PM67 °FSunny.5 mph45%30.15 "Hg10 mi
6:53 PM69 °FSunny.7 mph41%30.14 "Hg10 mi
5:53 PM70 °FSunny.9 mph38%30.13 "Hg10 mi
4:53 PM70 °FSunny.10 mph37%30.12 "Hg10 mi
3:53 PM71 °FScattered clouds.9 mph34%30.13 "Hg10 mi
Weather by CustomWeather, © 2015

See weather overviewHow to use our weather pages